Monroe, MI

10:57 PM EST on February 24, 2017 (GMT -0500)
Custer

Weather History for KTTF - March, 2013

Change the Weather History Date:

Saturday, March 30, 2013

  Actual Average Record
Temperature  
Mean Temperature 44 °F -  
Max Temperature 57 °F 52 °F 81 °F (1986)
Min Temperature 30 °F 34 °F 14 °F (1969)
Degree Days  
Heating Degree Days 22    
Moisture  
Dew Point 27 °F    
Average Humidity 55    
Maximum Humidity 81    
Minimum Humidity 24    
Precipitation  
Precipitation 0.00 in - - ()
Sea Level Pressure  
Sea Level Pressure 30.10 in    
Wind  
Wind Speed 3 mph (SW)    
Max Wind Speed 15 mph    
Max Gust Speed 20 mph    
Visibility 10 miles    
Events      
Averages and records for this station are not official NWS values.
T = Trace of Precipitation, MM = Missing Value Source: NWS Daily Summary

Daily Weather History Graph

Daily Weather History Graph

Search for Another Location

Airport or City:

Trip Planner

Search our weather history database for the weather conditions in past years. The results will help you decide how hot, cold, wet, or windy it might be!

Date:

Astronomy

Mar. 30, 2013 Rise Set
Actual Time 7:19 AM EDT 7:57 PM EDT
Civil Twilight 6:51 AM EDT 8:25 PM EDT
Nautical Twilight 6:18 AM EDT 8:58 PM EDT
Astronomical Twilight 5:43 AM EDT 9:33 PM EDT
Moon No Moon Rise 9:10 AM EDT (3/30)
Length of Visible Light 13h 34m
Length of Day
12h 37m
Waning Gibbous, 86% of the Moon is Illuminated
Mar 30
Waning Gibbous
Apr 3
Last Quarter
Apr 10
New
Apr 18
First Quarter
Apr 25
Full

Hourly Weather History & Observations

Time (EDT) Temp. Windchill Dew Point Humidity Pressure Visibility Wind Dir Wind Speed Gust Speed Precip Events Conditions
12:12 AM 35.6 °F - 26.6 °F 70% 30.20 in 10.0 mi Calm Calm - N/A   Clear
12:32 AM 35.6 °F - 28.4 °F 75% 30.20 in 10.0 mi Calm Calm - N/A   Clear
12:52 AM 33.8 °F - 28.4 °F 81% 30.19 in 10.0 mi Calm Calm - N/A   Clear
1:12 AM 33.8 °F 30.8 °F 28.4 °F 81% 30.20 in 10.0 mi West 3.5 mph - N/A   Clear
1:52 AM 35.6 °F - 26.6 °F 70% 30.20 in 10.0 mi Calm Calm - N/A   Clear
2:12 AM 33.8 °F 28.6 °F 24.8 °F 70% 30.19 in 10.0 mi NW 5.8 mph - N/A   Clear
2:32 AM 35.6 °F 30.7 °F 24.8 °F 65% 30.19 in 10.0 mi NW 5.8 mph - N/A   Clear
2:53 AM 35.6 °F 30.7 °F 24.8 °F 65% 30.19 in 10.0 mi NNW 5.8 mph - N/A   Clear
3:13 AM 33.8 °F 30.8 °F 24.8 °F 70% 30.19 in 10.0 mi NW 3.5 mph - N/A   Clear
3:33 AM 33.8 °F 30.8 °F 24.8 °F 70% 30.19 in 10.0 mi North 3.5 mph - N/A   Clear
3:53 AM 35.6 °F 31.7 °F 24.8 °F 65% 30.19 in 10.0 mi North 4.6 mph - N/A   Clear
4:13 AM 33.8 °F 28.6 °F 24.8 °F 70% 30.18 in 10.0 mi North 5.8 mph - N/A   Clear
4:33 AM 33.8 °F 29.6 °F 24.8 °F 70% 30.18 in 10.0 mi North 4.6 mph - N/A   Clear
4:53 AM 33.8 °F - 24.8 °F 70% 30.18 in 10.0 mi Calm Calm - N/A   Clear
5:13 AM 32.0 °F - 24.8 °F 75% 30.18 in 10.0 mi Calm Calm - N/A   Clear
5:33 AM 32.0 °F 28.7 °F 24.8 °F 75% 30.18 in 10.0 mi North 3.5 mph - N/A   Clear
5:53 AM 33.8 °F 30.8 °F 24.8 °F 70% 30.18 in 10.0 mi North 3.5 mph - N/A   Clear
6:14 AM 32.0 °F - 24.8 °F 75% 30.18 in 10.0 mi Calm Calm - N/A   Clear
6:34 AM 30.2 °F - 24.8 °F 80% 30.18 in 10.0 mi Calm Calm - N/A   Clear
6:54 AM 30.2 °F 25.4 °F 24.8 °F 80% 30.19 in 10.0 mi West 4.6 mph - N/A   Clear
7:14 AM 32.0 °F 28.7 °F 24.8 °F 75% 30.19 in 10.0 mi West 3.5 mph - N/A   Clear
7:54 AM 30.2 °F - 24.8 °F 80% 30.20 in 10.0 mi Calm Calm - N/A   Clear
8:14 AM 32.0 °F - 26.6 °F 80% 30.20 in 10.0 mi Calm Calm - N/A   Clear
8:34 AM 33.8 °F - 26.6 °F 75% 30.20 in 10.0 mi Calm Calm - N/A   Clear
8:54 AM 35.6 °F - 26.6 °F 70% 30.20 in 10.0 mi Calm Calm - N/A   Clear
9:15 AM 37.4 °F - 26.6 °F 65% 30.19 in 10.0 mi Calm Calm - N/A   Clear
9:35 AM 39.2 °F - 26.6 °F 61% 30.19 in 10.0 mi Calm Calm - N/A   Clear
9:55 AM 41.0 °F - 28.4 °F 61% 30.18 in 10.0 mi Calm Calm - N/A   Clear
10:15 AM 42.8 °F - 30.2 °F 61% 30.17 in 10.0 mi Calm Calm - N/A   Clear
10:35 AM 44.6 °F - 26.6 °F 49% 30.16 in 10.0 mi Calm Calm - N/A   Clear
10:55 AM 46.4 °F - 28.4 °F 50% 30.16 in 10.0 mi Calm Calm - N/A   Clear
11:15 AM 48.2 °F - 24.8 °F 40% 30.16 in 10.0 mi Calm Calm - N/A   Clear
11:35 AM 48.2 °F - 24.8 °F 40% 30.16 in 10.0 mi WSW 3.5 mph - N/A   Clear
11:55 AM 50.0 °F - 24.8 °F 37% 30.16 in 10.0 mi SSW 6.9 mph - N/A   Clear
12:15 PM 50.0 °F - 24.8 °F 37% 30.15 in 10.0 mi WSW 4.6 mph - N/A   Clear
12:36 PM 51.8 °F - 26.6 °F 38% 30.14 in 10.0 mi SW 5.8 mph - N/A   Clear
12:56 PM 51.8 °F - 24.8 °F 35% 30.13 in 10.0 mi SW 8.1 mph 16.1 mph N/A   Clear
1:16 PM 53.6 °F - 23.0 °F 30% 30.13 in 10.0 mi SSW 8.1 mph 17.3 mph N/A   Clear
1:36 PM 53.6 °F - 21.2 °F 28% 30.12 in 10.0 mi SSW 10.4 mph - N/A   Clear
1:56 PM 53.6 °F - 17.6 °F 24% 30.11 in 10.0 mi SSW 9.2 mph 18.4 mph N/A   Clear
2:16 PM 53.6 °F - 17.6 °F 24% 30.10 in 10.0 mi WSW 10.4 mph 17.3 mph N/A   Clear
2:36 PM 53.6 °F - 19.4 °F 26% 30.09 in 10.0 mi SW 6.9 mph 10.4 mph N/A   Clear
2:51 PM 55.4 °F - 19.4 °F 25% 30.09 in 10.0 mi WSW 9.2 mph - N/A   Clear
3:11 PM 55.4 °F - 21.2 °F 26% 30.08 in 10.0 mi WSW 9.2 mph 19.6 mph N/A   Clear
3:32 PM 55.4 °F - 24.8 °F 31% 30.07 in 10.0 mi WSW 12.7 mph - N/A   Clear
3:52 PM 55.4 °F - 26.6 °F 33% 30.06 in 10.0 mi SW 15.0 mph 18.4 mph N/A   Clear
4:12 PM 57.2 °F - 24.8 °F 29% 30.05 in 10.0 mi WSW 6.9 mph 18.4 mph N/A   Scattered Clouds
4:32 PM 57.2 °F - 26.6 °F 31% 30.04 in 10.0 mi WSW 9.2 mph - N/A   Clear
4:52 PM 55.4 °F - 26.6 °F 33% 30.03 in 10.0 mi SSW 10.4 mph 17.3 mph N/A   Clear
5:12 PM 55.4 °F - 26.6 °F 33% 30.02 in 10.0 mi SSE 10.4 mph - N/A   Clear
5:32 PM 55.4 °F - 28.4 °F 36% 30.02 in 10.0 mi SSE 6.9 mph - N/A   Clear
5:52 PM 51.8 °F - 28.4 °F 41% 30.01 in 10.0 mi SE 5.8 mph - N/A   Clear
6:12 PM 51.8 °F - 28.4 °F 41% 30.00 in 10.0 mi SSE 8.1 mph - N/A   Clear
6:32 PM 50.0 °F - 28.4 °F 43% 30.00 in 10.0 mi SSE 6.9 mph - N/A   Clear
6:53 PM 50.0 °F - 28.4 °F 43% 30.00 in 10.0 mi SE 5.8 mph - N/A   Clear
7:13 PM 48.2 °F - 28.4 °F 46% 30.00 in 10.0 mi SSE 5.8 mph - N/A   Clear
7:53 PM 46.4 °F 45.2 °F 30.2 °F 53% 29.99 in 10.0 mi SE 3.5 mph - N/A   Clear
8:13 PM 46.4 °F - 30.2 °F 53% 29.99 in 10.0 mi Calm Calm - N/A   Clear
8:35 PM 46.4 °F - 32.0 °F 57% 29.99 in 10.0 mi Calm Calm - N/A   Clear
8:55 PM 46.4 °F 45.2 °F 33.8 °F 62% 29.98 in 10.0 mi SSE 3.5 mph - N/A   Clear
9:16 PM 46.4 °F - 33.8 °F 62% 29.98 in 10.0 mi Calm Calm - N/A   Clear
9:36 PM 46.4 °F 45.2 °F 33.8 °F 62% 29.97 in 10.0 mi South 3.5 mph - N/A   Clear
9:56 PM 46.4 °F 45.2 °F 32.0 °F 57% 29.97 in 10.0 mi SSE 3.5 mph - N/A   Clear
10:16 PM 46.4 °F - 30.2 °F 53% 29.96 in 10.0 mi Calm Calm - N/A   Clear
10:36 PM 46.4 °F - 30.2 °F 53% 29.95 in 10.0 mi Calm Calm - N/A   Clear
10:56 PM 44.6 °F - 33.8 °F 66% 29.94 in 10.0 mi Calm Calm - N/A   Clear
11:16 PM 44.6 °F - 33.8 °F 66% 29.94 in 10.0 mi Calm Calm - N/A   Clear
11:31 PM 42.8 °F 41.1 °F 35.6 °F 76% 29.93 in 10.0 mi ESE 3.5 mph - N/A   Clear
11:51 PM 41.0 °F - 35.6 °F 81% 29.93 in 10.0 mi Calm Calm - N/A   Clear